Theta_e
309 312 319 325 327 328 326 327 332 332 331 329 330 329 329 327 326 326 324 323 324 324
303 305 309 312 315 319 322 322 323 328 328 327 326 324 326 325 324 324 324 324 323 322
300 301 302 304 305 308 312 316 317 319 322 323 323 322 321 321 320 320 321 321 321 317
298 298 300 300 301 301 303 304 306 308 311 314 316 317 317 316 314 312 312 310 311 311
296 297 297 297 297 297 298 300 301 301 304 306 307 308 309 310 309 309 307 308 305 307
294 294 294 294 295 295 295 295 296 297 297 298 299 299 300 300 301 304 306 306 304 305
290 291 292 292 292 292 292 292 293 293 294 294 295 295 295 297 298 299 300 299 300 300
288 289 289 288 289 289 289 289 290 290 290 291 291 292 291 292 294 294 295 294 295 295
285 285 285 285 285 286 286 286 287 287 287 287 289 291 292 292 289 289 290 291 291 289
282 282 282 283 283 283 284 284 284 284 285 285 286 290 291 291 287 287 287 287 287 286
280 280 281 281 281 281 282 282 282 283 283 283 285 290 290 290 286 285 284 284 284 284
279 279 280 280 280 280 281 281 281 282 282 282 283 287 289 288 284 284 283 283 282 282
279 279 278 278 279 280 280 281 282 282 281 281 281 285 287 287 284 283 283 282 281 282
278 277 278 278 279 279 279 280 279 279 280 279 280 281 285 286 284 283 283 281 281 281
Wind_Speed
6 3 3 4 3 5 4 6 10 11 12 11 11 10 10 10 11 13 10 11 11 9
6 6 5 6 5 3 2 2 5 6 8 10 10 9 9 8 11 10 10 11 10 9
6 6 6 5 6 6 7 6 5 6 6 6 5 5 6 5 5 6 7 6 8 6
6 7 6 5 6 6 6 6 5 5 6 6 6 5 5 4 3 5 5 3 5 6
6 7 6 6 6 6 7 6 7 6 6 6 6 5 4 4 4 5 5 7 5 8
6 6 6 6 6 6 6 6 7 6 6 6 6 6 5 5 5 5 6 7 8 8
7 6 6 6 6 6 6 5 6 6 6 6 6 6 5 5 5 5 6 6 6 6
6 6 6 7 7 6 6 6 6 6 6 6 6 4 6 6 6 6 7 6 6 6
6 6 6 6 6 7 6 6 6 6 6 7 5 9 11 9 6 6 6 8 7 5
8 7 7 7 7 7 7 6 6 6 6 7 6 10 12 11 6 6 6 7 6 5
9 8 7 6 5 6 5 6 6 7 7 7 6 12 13 13 7 7 7 7 7 7
7 9 9 9 10 8 7 7 5 5 7 7 6 10 13 12 6 8 10 7 7 8
7 7 8 8 9 7 7 9 7 10 6 6 8 11 15 13 4 9 8 6 8 13
7 7 6 6 6 7 8 8 7 8 7 6 6 8 16 17 8 7 8 8 6 5
Wind_Direction
8 343 338 291 257 226 221 228 234 218 217 223 227 225 229 226 220 218 214 222 226 227
6 12 2 339 333 345 339 355 340 273 237 223 216 210 206 230 233 223 221 233 239 233
1 360 356 357 357 3 342 350 338 326 317 293 268 239 233 215 239 242 238 241 238 242
358 360 1 7 2 360 349 356 359 358 329 315 313 319 296 289 289 264 275 262 244 233
11 359 6 5 5 2 356 351 350 347 336 330 327 328 285 263 243 235 241 247 231 234
14 9 353 350 352 354 351 351 345 343 341 329 323 318 310 297 283 268 255 245 238 242
1 356 344 336 340 343 344 340 332 325 316 312 302 300 301 296 287 275 262 251 242 234
354 355 351 344 339 334 334 324 315 308 312 305 304 301 294 278 263 257 266 261 256 245
359 354 348 339 341 338 325 315 314 308 296 297 296 299 295 286 284 282 269 261 249 239
358 351 344 332 335 332 323 312 301 294 294 285 280 280 275 270 261 264 262 261 259 251
351 339 328 318 321 321 311 315 310 301 294 292 292 288 281 273 264 261 253 241 237 237
331 328 332 336 332 325 320 316 293 287 292 290 290 290 290 287 260 262 263 251 228 218
318 320 320 317 318 312 310 307 311 310 301 291 297 300 300 293 254 263 270 257 246 223
316 311 297 299 306 306 310 311 307 303 308 293 280 292 301 300 290 262 267 264 262 228